User: anonymous   Login
Location: Unspecified
(0.0000°N, 0.0000°E)
Time: 08:12:04
(UTC+00:00)
Language:

P83-1 Hilat - Orbit

View from above orbital plane
View from above orbital plane
View from above satellite
View from above satellite

Ground track
Ground track

The orbit data is extracted from the following two-line orbital elements,

1 14154U 83063A   24113.71329133  .00001372  00000-0  44959-3 0  9992
2 14154  82.0257 170.7354 0041047 147.8421 337.0235 14.37421267134683
Epoch (UTC): 22 April 2024 17:07:08
Eccentricity: 0.0041047
inclination: 82.0257°
perigee height: 738 km
apogee height: 796 km
right ascension of ascending node: 170.7354°
argument of perigee: 147.8421°
revolutions per day: 14.37421267
mean anomaly at epoch: 337.0235°
orbit number at epoch: 13468

The dashed part of the orbit path shows where the satellite is in the earth's shadow,  

DLR